Content
SEND FEEDBACK

Daily
Averages
Monthly
Summary
Turkey

KILIS, TURKEY


Home > Middle East > Turkey
Elevation: 2093 feet     Latitude: 36 06N     Longitude: 037 24E

WEATHER
 
SELECT A DAY
Number of Records: 207,650;   Date Range: 7/1/96 - 9/22/14
 
SHARE

PRINT THIS DATA

[ ← Previous Day ]
WEATHER ALMANAC - FEBRUARY 2, 2013
[ Next Day → ]
[ °C ]   °F
Weather ElementAverageHighLow
Temperature41.1 °F53.6 °F (11:50 am)30.2 °F (4:20 am)
Dewpoint33.2 °F39.2 °F (9:20 am)26.6 °F (12:20 pm)
Humidity77 %100 % (12:50 am)35 % (12:20 pm)
Barometer30.02 in30.22 in (8:00 pm)29.86 in (12:50 am)
Wind Speed5.4 mph15 mph (11:50 am)
Weather ElementAverage
Visibility4.4 mi
Wind DirectionS (183.1 °)

Weather ElementTotal
Precipitation---
Heating Degree Days23.1 (Base 65)
Averaged from 51 records on February 2, 2013
WEATHER CONDITIONS BREAKOUT
WIND DIRECTION BREAKOUT
WEATHER BY HOUR - FEBRUARY 2, 2013
[ °C ]   °F
Local TimeTemperatureDewpointHumidityBarometerVisibilityWind DirectionWind SpeedGust SpeedPrecipitationEventsConditions
12:50 AM33.8 °F33.8 °F100 %29.86 in1.9 miCalmScattered Clouds
1:20 AM33.8 °F33.8 °F100 %29.89 in3.7 miCalmScattered Clouds
1:50 AM33.8 °F33.8 °F100 %29.86 in3.7 miWest (260°)1.2 mphScattered Clouds
2:00 AM34.0 °F34.0 °F100 %29.92 in4.0 miWest (260°)1.2 mphMist
2:20 AM33.8 °F33.8 °F100 %29.86 in3.7 miWest (260°)3.5 mphPartly Cloudy
2:50 AM33.8 °F32.0 °F93 %29.86 in3.7 miNorth (10°)2.3 mphPartly Cloudy
3:20 AM32.0 °F32.0 °F100 %29.89 in1.2 miNW (310°)3.5 mphMist
3:50 AM32.0 °F32.0 °F100 %29.89 in1.2 miCalmMist
4:20 AM30.2 °F30.2 °F100 %29.89 in3.7 miVariable1.2 mphMist
4:50 AM30.2 °F30.2 °F100 %29.89 in5.0 miWest (270°)1.2 mph
5:20 AM30.2 °F30.2 °F100 %29.89 in4.3 miWest (270°)1.2 mph
5:50 AM30.2 °F30.2 °F100 %29.92 in4.3 miWest (280°)1.2 mph
6:20 AM30.2 °F30.2 °F100 %29.92 in3.7 miWNW (290°)2.3 mph
6:50 AM30.2 °F28.4 °F93 %29.95 in3.7 miWNW (290°)4.6 mph
7:20 AM32.0 °F30.2 °F93 %29.95 in4.3 miVariable2.3 mphPartly Cloudy
7:50 AM33.8 °F32.0 °F93 %29.98 in3.7 miCalmPartly Cloudy
8:00 AM34.0 °F32.0 °F89 %30.04 in4.0 miCalmMist
8:20 AM39.2 °F35.6 °F87 %29.98 inCalmClear
8:50 AM42.8 °F35.6 °F76 %29.98 inVariable1.2 mphClear
9:20 AM46.4 °F39.2 °F76 %29.98 inSSW (200°)3.5 mphClear
9:50 AM48.2 °F33.8 °F58 %30.01 inWest (280°)9.2 mphClear
10:20 AM50.0 °F32.0 °F50 %30.01 inWSW (250°)11.5 mphClear
10:50 AM50.0 °F32.0 °F50 %30.01 inWest (280°)9.2 mphClear
11:20 AM51.8 °F30.2 °F44 %30.01 inWest (260°)12.7 mphClear
11:50 AM53.6 °F32.0 °F44 %30.01 inWest (270°)15.0 mphClear
12:20 PM53.6 °F26.6 °F35 %30.01 in6.2 miWest (260°)15.0 mphPartly Cloudy
12:50 PM53.6 °F30.2 °F41 %30.01 in6.2 miWest (270°)15.0 mphPartly Cloudy
1:20 PM53.6 °F33.8 °F47 %30.01 inWSW (240°)10.4 mphClear
1:50 PM53.6 °F35.6 °F51 %30.01 inWSW (250°)11.5 mphClear
2:00 PM53.0 °F35.0 °F37 %30.06 in6.0 miWSW (250°)11.5 mph
2:20 PM53.6 °F33.8 °F47 %30.04 inWest (260°)15.0 mphClear
2:50 PM53.6 °F33.8 °F47 %30.04 inWSW (250°)12.7 mphClear
3:20 PM53.6 °F35.6 °F51 %30.04 inWest (260°)12.7 mphClear
3:50 PM51.8 °F33.8 °F50 %30.04 inWest (270°)11.5 mphClear
4:20 PM51.8 °F33.8 °F50 %30.06 inWest (270°)9.2 mphClear
4:50 PM48.2 °F35.6 °F62 %30.06 inWest (270°)8.1 mphClear
5:20 PM44.6 °F35.6 °F71 %30.09 inWest (260°)6.9 mphClear
5:50 PM44.6 °F35.6 °F71 %30.09 inWest (270°)10.4 mphClear
6:20 PM42.8 °F35.6 °F76 %30.12 inVariable2.3 mphClear
6:50 PM41.0 °F35.6 °F81 %30.12 inCalmClear
7:20 PM39.2 °F33.8 °F81 %30.12 inCalmClear
7:50 PM37.4 °F33.8 °F87 %30.15 inVariable2.3 mphClear
8:00 PM38.0 °F34.0 °F81 %30.22 in6.0 mi°2.3 mph
8:20 PM39.2 °F32.0 °F75 %30.15 inWest (280°)5.8 mphClear
8:50 PM35.6 °F32.0 °F87 %30.15 inWest (270°)4.6 mphClear
9:20 PM35.6 °F33.8 °F93 %30.15 inWest (260°)3.5 mphClear
9:50 PM35.6 °F33.8 °F93 %30.15 in6.2 miWSW (250°)4.6 mphScattered Clouds
10:20 PM37.4 °F33.8 °F87 %30.18 in6.2 miWest (260°)6.9 mphMostly Cloudy
10:50 PM37.4 °F35.6 °F93 %30.18 in6.2 miSW (230°)3.5 mphMostly Cloudy
11:20 PM37.4 °F35.6 °F93 %30.18 in6.2 miCalmMostly Cloudy
11:50 PM39.2 °F37.4 °F93 %30.18 in6.2 miCalmMostly Cloudy
Hourly data recorded from LTAJ, located miles away from Kilis, Turkey







STORIES FROM OUR PARTNERS